Cambridge, MD

7:24 AM EDT on May 25, 2017 (GMT -0400)
Cambridge-Dorchester

Weather History for KCGE - November, 2013

Change the Weather History Date:

Sunday, November 10, 2013

  Actual Average (KESN) Record (KESN)
Temperature  
Mean Temperature 52 °F -  
Max Temperature 64 °F 59 °F 72 °F (1966)
Min Temperature 39 °F 41 °F 28 °F (1954)
Degree Days  
Heating Degree Days 14    
Growing Degree Days 2 (Base 50)    
Moisture  
Dew Point 32 °F    
Average Humidity 49    
Maximum Humidity 81    
Minimum Humidity 28    
Precipitation  
Precipitation 0.00 in - - ()
Sea Level Pressure  
Sea Level Pressure 30.05 in    
Wind  
Wind Speed 6 mph (West)    
Max Wind Speed 20 mph    
Max Gust Speed 36 mph    
Visibility 10 miles    
Events      
Averages and records for this station are not official NWS values.
T = Trace of Precipitation, MM = Missing Value Source: NWS Daily Summary

Daily Weather History Graph

Daily Weather History Graph

Search for Another Location

Airport or City:

Trip Planner

Search our weather history database for the weather conditions in past years. The results will help you decide how hot, cold, wet, or windy it might be!

Date:

Astronomy

Nov. 10, 2013 Rise Set
Actual Time 6:40 AM EST 4:54 PM EST
Civil Twilight 6:12 AM EST 5:22 PM EST
Nautical Twilight 5:40 AM EST 5:54 PM EST
Astronomical Twilight 5:09 AM EST 6:25 PM EST
Moon 12:54 PM EST (11/10) No Moon Set
Length of Visible Light 11h 10m
Length of Day
10h 14m
First Quarter, 55% of the Moon is Illuminated
Nov 10
First Quarter
Nov 17
Full
Nov 25
Last Quarter
Dec 2
New
Dec 9
First Quarter

Hourly Weather History & Observations

Time (EST) Temp. Windchill Dew Point Humidity Pressure Visibility Wind Dir Wind Speed Gust Speed Precip Events Conditions
12:18 AM 50.0 °F - 33.8 °F 54% 30.05 in 10.0 mi SSW 3.5 mph - N/A   Clear
12:38 AM 50.0 °F - 33.8 °F 54% 30.04 in 10.0 mi SSW 4.6 mph - N/A   Clear
12:58 AM 48.2 °F - 33.8 °F 58% 30.04 in 10.0 mi Calm Calm - N/A   Clear
1:18 AM 44.6 °F - 32.0 °F 61% 30.04 in 10.0 mi Calm Calm - N/A   Clear
1:38 AM 42.8 °F - 32.0 °F 66% 30.04 in 10.0 mi Calm Calm - N/A   Clear
1:58 AM 41.0 °F - 32.0 °F 70% 30.04 in 10.0 mi Calm Calm - N/A   Clear
2:18 AM 41.0 °F - 33.8 °F 76% 30.04 in 10.0 mi Calm Calm - N/A   Clear
2:38 AM 41.0 °F 39.0 °F 33.8 °F 76% 30.04 in 10.0 mi SE 3.5 mph - N/A   Clear
2:58 AM 41.0 °F - 33.8 °F 76% 30.03 in 10.0 mi Calm Calm - N/A   Clear
3:18 AM 39.2 °F - 33.8 °F 81% 30.03 in 10.0 mi Calm Calm - N/A   Clear
3:38 AM 41.0 °F - 33.8 °F 76% 30.02 in 10.0 mi Calm Calm - N/A   Clear
3:58 AM 41.0 °F - 33.8 °F 76% 30.02 in 10.0 mi Calm Calm - N/A   Clear
4:18 AM 39.2 °F - 32.0 °F 75% 30.02 in 10.0 mi Calm Calm - N/A   Clear
4:38 AM 39.2 °F - 32.0 °F 75% 30.02 in 10.0 mi Calm Calm - N/A   Clear
4:58 AM 39.2 °F - 32.0 °F 75% 30.02 in 10.0 mi Calm Calm - N/A   Clear
5:18 AM 41.0 °F 39.0 °F 33.8 °F 76% 30.02 in 10.0 mi SW 3.5 mph - N/A   Clear
5:38 AM 41.0 °F - 32.0 °F 70% 30.02 in 10.0 mi Calm Calm - N/A   Clear
5:58 AM 42.8 °F 41.1 °F 33.8 °F 70% 30.02 in 10.0 mi SW 3.5 mph - N/A   Clear
6:18 AM 42.8 °F - 33.8 °F 70% 30.02 in 10.0 mi Calm Calm - N/A   Clear
6:38 AM 41.0 °F - 32.0 °F 70% 30.02 in 10.0 mi Calm Calm - N/A   Clear
6:58 AM 41.0 °F - 33.8 °F 76% 30.03 in 10.0 mi Calm Calm - N/A   Clear
7:18 AM 41.0 °F - 33.8 °F 76% 30.03 in 10.0 mi Calm Calm - N/A   Clear
7:38 AM 41.0 °F - 33.8 °F 76% 30.03 in 10.0 mi Calm Calm - N/A   Clear
7:58 AM 46.4 °F 45.2 °F 35.6 °F 66% 30.03 in 10.0 mi SW 3.5 mph - N/A   Clear
8:17 AM 51.8 °F - 39.2 °F 62% 30.03 in 10.0 mi SW 4.6 mph - N/A   Clear
8:38 AM 53.6 °F - 37.4 °F 54% 30.03 in 10.0 mi WSW 5.8 mph - N/A   Clear
8:59 AM 55.4 °F - 35.6 °F 47% 30.02 in 10.0 mi WSW 8.1 mph - N/A   Clear
9:19 AM 59.0 °F - 33.8 °F 39% 30.02 in 10.0 mi WSW 8.1 mph - N/A   Clear
9:39 AM 60.8 °F - 33.8 °F 36% 30.01 in 10.0 mi WSW 11.5 mph 18.4 mph N/A   Clear
9:59 AM 60.8 °F - 33.8 °F 36% 30.00 in 10.0 mi WSW 11.5 mph 16.1 mph N/A   Clear
10:19 AM 62.6 °F - 33.8 °F 34% 29.99 in 10.0 mi WSW 9.2 mph 20.7 mph N/A   Clear
10:39 AM 62.6 °F - 33.8 °F 34% 29.98 in 10.0 mi WSW 13.8 mph 19.6 mph N/A   Clear
10:59 AM 62.6 °F - 33.8 °F 34% 29.97 in 10.0 mi SW 13.8 mph 19.6 mph N/A   Clear
11:19 AM 62.6 °F - 33.8 °F 34% 29.97 in 10.0 mi WSW 17.3 mph 23.0 mph N/A   Clear
11:39 AM 62.6 °F - 33.8 °F 34% 29.96 in 10.0 mi SW 17.3 mph 21.9 mph N/A   Clear
11:59 AM 64.4 °F - 33.8 °F 32% 29.95 in 10.0 mi WSW 13.8 mph 19.6 mph N/A   Clear
12:19 PM 64.4 °F - 32.0 °F 30% 29.94 in 10.0 mi WSW 13.8 mph 17.3 mph N/A   Clear
12:39 PM 64.4 °F - 32.0 °F 30% 29.94 in 10.0 mi West 12.7 mph 20.7 mph N/A   Clear
12:59 PM 64.4 °F - 32.0 °F 30% 29.94 in 10.0 mi West 12.7 mph 19.6 mph N/A   Clear
1:19 PM 64.4 °F - 32.0 °F 30% 29.94 in 10.0 mi West 15.0 mph 21.9 mph N/A   Clear
1:39 PM 64.4 °F - 30.2 °F 28% 29.94 in 10.0 mi West 10.4 mph 20.7 mph N/A   Clear
1:59 PM 64.4 °F - 32.0 °F 30% 29.94 in 10.0 mi West 11.5 mph 16.1 mph N/A   Clear
2:19 PM 64.4 °F - 30.2 °F 28% 29.94 in 10.0 mi WNW 13.8 mph 21.9 mph N/A   Clear
2:39 PM 64.4 °F - 32.0 °F 30% 29.96 in 10.0 mi NW 13.8 mph 20.7 mph N/A   Clear
2:59 PM 62.6 °F - 30.2 °F 30% 29.96 in 10.0 mi NW 17.3 mph 23.0 mph N/A   Clear
3:19 PM 62.6 °F - 30.2 °F 30% 29.97 in 10.0 mi NW 15.0 mph 24.2 mph N/A   Clear
3:39 PM 62.6 °F - 30.2 °F 30% 29.99 in 10.0 mi NW 15.0 mph 23.0 mph N/A   Clear
3:59 PM 60.8 °F - 30.2 °F 31% 30.00 in 10.0 mi NW 11.5 mph 25.3 mph N/A   Clear
4:19 PM 60.8 °F - 30.2 °F 31% 30.02 in 10.0 mi NW 15.0 mph 23.0 mph N/A   Clear
4:39 PM 59.0 °F - 32.0 °F 36% 30.03 in 10.0 mi NW 12.7 mph 21.9 mph N/A   Clear
4:59 PM 59.0 °F - 32.0 °F 36% 30.04 in 10.0 mi NNW 12.7 mph 18.4 mph N/A   Clear
5:20 PM 55.4 °F - 30.2 °F 38% 30.06 in 10.0 mi NW 8.1 mph 17.3 mph N/A   Clear
5:40 PM 55.4 °F - 30.2 °F 38% 30.07 in 10.0 mi NW 11.5 mph 17.3 mph N/A   Clear
6:00 PM 55.4 °F - 30.2 °F 38% 30.09 in 10.0 mi NW 12.7 mph 20.7 mph N/A   Clear
6:20 PM 55.4 °F - 30.2 °F 38% 30.10 in 10.0 mi NW 12.7 mph 21.9 mph N/A   Clear
6:40 PM 55.4 °F - 30.2 °F 38% 30.11 in 10.0 mi NW 16.1 mph 25.3 mph N/A   Clear
7:00 PM 53.6 °F - 30.2 °F 41% 30.12 in 10.0 mi NW 18.4 mph 23.0 mph N/A   Clear
7:20 PM 53.6 °F - 30.2 °F 41% 30.13 in 10.0 mi NW 19.6 mph 27.6 mph N/A   Clear
7:40 PM 51.8 °F - 30.2 °F 44% 30.15 in 10.0 mi NW 17.3 mph 34.5 mph N/A   Clear
8:00 PM 51.8 °F - 28.4 °F 41% 30.17 in 10.0 mi NW 18.4 mph 35.7 mph N/A   Clear
8:20 PM 51.8 °F - 28.4 °F 41% 30.18 in 10.0 mi NW 17.3 mph 31.1 mph N/A   Clear
8:40 PM 51.8 °F - 28.4 °F 41% 30.18 in 10.0 mi NW 15.0 mph 23.0 mph N/A   Clear
9:00 PM 51.8 °F - 28.4 °F 41% 30.18 in 10.0 mi NW 13.8 mph 27.6 mph N/A   Clear
9:20 PM 51.8 °F - 28.4 °F 41% 30.18 in 10.0 mi NW 16.1 mph 24.2 mph N/A   Clear
9:40 PM 51.8 °F - 28.4 °F 41% 30.20 in 10.0 mi NW 13.8 mph 21.9 mph N/A   Clear
10:00 PM 51.8 °F - 28.4 °F 41% 30.20 in 10.0 mi NW 13.8 mph 26.5 mph N/A   Clear
10:20 PM 51.8 °F - 28.4 °F 41% 30.21 in 10.0 mi WNW 8.1 mph - N/A   Clear
10:40 PM 50.0 °F - 28.4 °F 43% 30.21 in 10.0 mi WNW 5.8 mph - N/A   Clear
11:00 PM 48.2 °F - 28.4 °F 46% 30.21 in 10.0 mi West 6.9 mph - N/A   Clear
11:20 PM 48.2 °F - 28.4 °F 46% 30.21 in 10.0 mi WNW 6.9 mph - N/A   Clear
11:40 PM 48.2 °F - 30.2 °F 50% 30.22 in 10.0 mi West 5.8 mph - N/A   Clear